Location: Orangeville
(43.9200°N, 80.0943°W)
Time: 08:43:36
(UTC-05:00)

ISS - Pass Details

Date: 02 December 2021
Orbit: 413 x 422 km, 51.6° (Epoch: 24 January)

Event Time Altitude Azimuth Distance (km) Brightness Sun altitude
Rises 18:01:55 0° 302° (WNW) 2,383 0.7 -13.7°
Reaches altitude 10° 18:04:12 10° 313° (NW) 1,515 -0.5 -14.1°
Maximum altitude 18:07:14 30° 17° (NNE) 793 -2.7 -14.6°
Enters shadow 18:07:59 27° 42° (NE) 851 -2.7 -14.8°
